Weather History for Rensselaer, IN

Change the Weather History Date:

Saturday, December 29, 2012

  Actual Average (KVPZ) Record (KVPZ)
Temperature  
Mean Temperature 28 °F 25 °F  
Max Temperature 32 °F 32 °F 54 °F (2006)
Min Temperature 23 °F 18 °F 5 °F (2010)
Degree Days  
Heating Degree Days 38 40  
Month to date heating degree days 1063  
Since 1 July heating degree days 2321  
Cooling Degree Days 0 0  
Month to date cooling degree days 0  
Year to date cooling degree days 713  
Moisture  
Dew Point 26 °F    
Average Humidity 91    
Maximum Humidity 100    
Minimum Humidity 80    
Precipitation  
Precipitation 0.00 in 0.06 in 0.13 in (2003)
Month to date precipitation 2.03  
Year to date precipitation 37.36  
Sea Level Pressure  
Sea Level Pressure 29.98 in    
Wind  
Wind Speed 9 mph (WNW)    
Max Wind Speed 22 mph    
Max Gust Speed 29 mph    
Visibility 7 miles    
Events Snow    
T = Trace of Precipitation, MM = Missing Value Source: NWS Daily Summary

Daily Weather History Graph

Daily Weather History Graph

Search for Another Location

Airport:

Trip Planner

Search our weather history database for the weather conditions in past years. The results will help you decide how hot, cold, wet, or windy it might be!

Date:

Astronomy

Dec. 29, 2012 Rise Set
Actual Time 7:13 AM CST 4:29 PM CST
Civil Twilight 6:42 AM CST 5:00 PM CST
Nautical Twilight 6:07 AM CST 5:34 PM CST
Astronomical Twilight 5:34 AM CST 6:08 PM CST
Moon 6:02 PM CST (12/29) 7:45 AM CST (12/29)
Length of Visible Light 10h 18m
Length of Day
9h 16m
Full, 98% of the Moon is Illuminated
Dec 29
Full
Jan 4
Last Quarter
Jan 11
New
Jan 18
First Quarter
Jan 26
Full

Hourly Weather History & Observations

Time (CST) Temp. Windchill Dew Point Humidity Pressure Visibility Wind Dir Wind Speed Gust Speed Precip Events Conditions
12:15 AM 30.2 °F 25.4 °F 30.2 °F 100% 29.85 in 7.0 mi NE 4.6 mph - N/A   Overcast
12:35 AM 30.2 °F 26.7 °F 30.2 °F 100% 29.84 in 5.0 mi NE 3.5 mph - N/A   Overcast
12:55 AM 30.2 °F 26.7 °F 30.2 °F 100% 29.84 in 5.0 mi NE 3.5 mph - N/A   Overcast
1:15 AM 30.2 °F 26.7 °F 30.2 °F 100% 29.84 in 5.0 mi NNE 3.5 mph - N/A   Overcast
1:35 AM 30.2 °F - 30.2 °F 100% 29.84 in 5.0 mi Calm Calm - N/A   Overcast
1:55 AM 30.2 °F - 28.4 °F 93% 29.85 in 5.0 mi Calm Calm - N/A   Overcast
2:15 AM 30.2 °F - 30.2 °F 100% 29.86 in 5.0 mi Calm Calm - N/A   Overcast
2:35 AM 30.2 °F 26.7 °F 30.2 °F 100% 29.86 in 7.0 mi NW 3.5 mph - N/A   Overcast
2:55 AM 30.2 °F 26.7 °F 30.2 °F 100% 29.86 in 5.0 mi WNW 3.5 mph - N/A   Overcast
3:15 AM 30.2 °F 26.7 °F 30.2 °F 100% 29.85 in 5.0 mi WNW 3.5 mph - N/A   Overcast
3:35 AM 30.2 °F 25.4 °F 30.2 °F 100% 29.85 in 5.0 mi NW 4.6 mph - N/A   Overcast
3:55 AM 30.2 °F 25.4 °F 30.2 °F 100% 29.85 in 4.0 mi NW 4.6 mph - N/A   Overcast
4:15 AM 30.2 °F 25.4 °F 30.2 °F 100% 29.85 in 4.0 mi WNW 4.6 mph - N/A   Overcast
4:35 AM 30.2 °F 25.4 °F 30.2 °F 100% 29.85 in 4.0 mi NW 4.6 mph - N/A   Overcast
4:55 AM 30.2 °F 25.4 °F 30.2 °F 100% 29.85 in 4.0 mi NW 4.6 mph - N/A   Overcast
5:15 AM 30.2 °F 25.4 °F 30.2 °F 100% 29.86 in 4.0 mi WNW 4.6 mph - N/A   Overcast
5:35 AM 30.2 °F 25.4 °F 30.2 °F 100% 29.86 in 5.0 mi WNW 4.6 mph - N/A   Overcast
5:55 AM 30.2 °F 26.7 °F 30.2 °F 100% 29.86 in 5.0 mi WNW 3.5 mph - N/A   Overcast
6:15 AM 30.2 °F 25.4 °F 30.2 °F 100% 29.87 in 4.0 mi West 4.6 mph - N/A Snow Light Snow
6:35 AM 30.2 °F 25.4 °F 30.2 °F 100% 29.87 in 4.0 mi WNW 4.6 mph - N/A Snow Light Snow
7:15 AM 30.2 °F 23.4 °F 30.2 °F 100% 29.88 in 3.0 mi West 6.9 mph - N/A Snow Light Snow
7:35 AM 32.0 °F 24.8 °F 30.2 °F 93% 29.88 in 3.0 mi West 8.1 mph - N/A Snow Light Snow
7:55 AM 32.0 °F 25.6 °F 30.2 °F 93% 29.88 in 2.5 mi WNW 6.9 mph - N/A   Overcast
8:15 AM 32.0 °F 24.8 °F 32.0 °F 100% 29.89 in 2.5 mi West 8.1 mph - N/A Snow Light Snow
8:35 AM 32.0 °F 24.8 °F 32.0 °F 100% 29.89 in 3.0 mi West 8.1 mph - N/A Snow Light Snow
8:55 AM 32.0 °F 24.2 °F 32.0 °F 100% 29.90 in 2.5 mi West 9.2 mph - N/A Snow Light Snow
9:15 AM 32.0 °F 24.2 °F 32.0 °F 100% 29.91 in 1.8 mi West 9.2 mph 16.1 mph N/A Snow Light Snow
9:35 AM 32.0 °F 23.0 °F 32.0 °F 100% 29.91 in 2.0 mi West 11.5 mph - N/A Snow Light Snow
9:55 AM 32.0 °F 21.2 °F 30.2 °F 93% 29.92 in 2.5 mi West 16.1 mph - N/A Snow Light Snow
10:15 AM 32.0 °F 20.5 °F 30.2 °F 93% 29.93 in 2.5 mi West 18.4 mph 24.2 mph N/A Snow Light Snow
10:35 AM 30.2 °F 18.9 °F 28.4 °F 93% 29.93 in 2.0 mi West 16.1 mph 23.0 mph N/A Snow Light Snow
10:55 AM 30.2 °F 19.8 °F 28.4 °F 93% 29.94 in 2.5 mi West 13.8 mph 20.7 mph N/A Snow Light Snow
11:15 AM 28.4 °F 15.4 °F 26.6 °F 93% 29.94 in 3.0 mi West 19.6 mph 28.8 mph N/A Snow Light Snow
11:35 AM 28.4 °F 16.6 °F 26.6 °F 93% 29.95 in 4.0 mi West 16.1 mph 23.0 mph N/A Snow Light Snow
11:55 AM 28.4 °F 15.4 °F 26.6 °F 93% 29.95 in 5.0 mi West 19.6 mph 24.2 mph N/A Snow Light Snow
12:15 PM 28.4 °F 16.2 °F 26.6 °F 93% 29.95 in 7.0 mi West 17.3 mph 25.3 mph N/A Snow Light Snow
12:35 PM 28.4 °F 15.4 °F 26.6 °F 93% 29.95 in 7.0 mi West 19.6 mph 24.2 mph N/A Snow Light Snow
12:55 PM 28.4 °F 17.5 °F 26.6 °F 93% 29.95 in 10.0 mi West 13.8 mph 25.3 mph N/A   Overcast
1:15 PM 28.4 °F 16.6 °F 26.6 °F 93% 29.96 in 10.0 mi West 16.1 mph 23.0 mph N/A   Overcast
1:35 PM 28.4 °F 16.2 °F 24.8 °F 86% 29.96 in 10.0 mi West 17.3 mph 24.2 mph N/A   Overcast
1:55 PM 28.4 °F 17.0 °F 24.8 °F 86% 29.97 in 10.0 mi West 15.0 mph 21.9 mph N/A   Overcast
2:15 PM 28.4 °F 17.0 °F 24.8 °F 86% 29.98 in 10.0 mi West 15.0 mph 19.6 mph N/A   Overcast
2:35 PM 28.4 °F 16.2 °F 24.8 °F 86% 29.99 in 10.0 mi West 17.3 mph 24.2 mph N/A   Overcast
2:55 PM 28.4 °F 16.6 °F 23.0 °F 80% 30.00 in 10.0 mi West 16.1 mph 25.3 mph N/A   Overcast
3:15 PM 28.4 °F 14.7 °F 23.0 °F 80% 30.01 in 10.0 mi West 21.9 mph 27.6 mph N/A   Overcast
3:35 PM 28.4 °F 17.5 °F 23.0 °F 80% 30.02 in 10.0 mi West 13.8 mph - N/A   Overcast
3:55 PM 28.4 °F 16.2 °F 23.0 °F 80% 30.03 in 10.0 mi West 17.3 mph 23.0 mph N/A   Overcast
4:15 PM 28.4 °F 17.5 °F 23.0 °F 80% 30.04 in 10.0 mi WNW 13.8 mph 21.9 mph N/A   Overcast
4:35 PM 28.4 °F 17.5 °F 23.0 °F 80% 30.05 in 10.0 mi WNW 13.8 mph 24.2 mph N/A   Overcast
4:55 PM 28.4 °F 17.0 °F 23.0 °F 80% 30.06 in 10.0 mi West 15.0 mph 23.0 mph N/A   Overcast
5:15 PM 28.4 °F 16.2 °F 23.0 °F 80% 30.07 in 10.0 mi West 17.3 mph 23.0 mph N/A   Overcast
5:35 PM 28.4 °F 18.0 °F 23.0 °F 80% 30.09 in 10.0 mi West 12.7 mph 24.2 mph N/A   Overcast
5:55 PM 28.4 °F 17.0 °F 23.0 °F 80% 30.09 in 10.0 mi West 15.0 mph 25.3 mph N/A   Overcast
6:15 PM 26.6 °F 13.1 °F 21.2 °F 80% 30.10 in 10.0 mi West 19.6 mph 24.2 mph N/A   Overcast
6:35 PM 26.6 °F 14.3 °F 21.2 °F 80% 30.11 in 10.0 mi West 16.1 mph 21.9 mph N/A   Overcast
6:55 PM 26.6 °F 14.3 °F 21.2 °F 80% 30.13 in 10.0 mi West 16.1 mph 21.9 mph N/A   Overcast
7:15 PM 26.6 °F 13.4 °F 21.2 °F 80% 30.14 in 10.0 mi West 18.4 mph 23.0 mph N/A   Overcast
7:35 PM 26.6 °F 16.2 °F 21.2 °F 80% 30.14 in 10.0 mi West 11.5 mph 18.4 mph N/A   Overcast
7:55 PM 26.6 °F 15.7 °F 21.2 °F 80% 30.14 in 10.0 mi West 12.7 mph 21.9 mph N/A   Overcast
8:15 PM 26.6 °F 15.2 °F 21.2 °F 80% 30.16 in 10.0 mi West 13.8 mph 20.7 mph N/A   Overcast
8:35 PM 26.6 °F 15.7 °F 21.2 °F 80% 30.17 in 10.0 mi West 12.7 mph 21.9 mph N/A   Overcast
8:55 PM 26.6 °F 16.2 °F 21.2 °F 80% 30.18 in 10.0 mi West 11.5 mph 20.7 mph N/A   Overcast
9:15 PM 26.6 °F 15.7 °F 21.2 °F 80% 30.18 in 10.0 mi West 12.7 mph 17.3 mph N/A   Overcast
9:35 PM 24.8 °F 11.9 °F 21.2 °F 86% 30.19 in 10.0 mi West 16.1 mph 24.2 mph N/A   Overcast
9:55 PM 24.8 °F 11.9 °F 21.2 °F 86% 30.20 in 10.0 mi West 16.1 mph 21.9 mph N/A   Overcast
10:15 PM 23.0 °F 9.2 °F 21.2 °F 93% 30.21 in 10.0 mi West 17.3 mph - N/A   Overcast
10:35 PM 23.0 °F 10.6 °F 19.4 °F 86% 30.22 in 10.0 mi West 13.8 mph 20.7 mph N/A   Overcast
10:55 PM 23.0 °F 11.7 °F 19.4 °F 86% 30.22 in 10.0 mi West 11.5 mph 17.3 mph N/A   Overcast
11:15 PM 23.0 °F 9.6 °F 19.4 °F 86% 30.22 in 10.0 mi West 16.1 mph - N/A   Overcast
11:35 PM 23.0 °F 10.6 °F 19.4 °F 86% 30.23 in 10.0 mi West 13.8 mph - N/A   Overcast